Ottumwa, IA

11:04 PM CST on February 19, 2017 (GMT -0600)
Ottumwa Industrial

Weather History for KOTM - May, 2013

Change the Weather History Date:

Monday, May 27, 2013

  Actual Average Record
Temperature  
Mean Temperature 65 °F 65 °F  
Max Temperature 71 °F 76 °F 93 °F (1977)
Min Temperature 59 °F 54 °F 39 °F (1992)
Degree Days  
Heating Degree Days 0 3  
Month to date heating degree days 185 156  
Since 1 July heating degree days 6245 6286  
Cooling Degree Days 0 3  
Month to date cooling degree days 44 42  
Year to date cooling degree days 56 53  
Growing Degree Days 14 (Base 50)    
Moisture  
Dew Point 59 °F    
Average Humidity 85    
Maximum Humidity 97    
Minimum Humidity 73    
Precipitation  
Precipitation 0.37 in 0.15 in 2.61 in (1973)
Month to date precipitation 7.26 4.06  
Year to date precipitation 21.19 11.88  
Sea Level Pressure  
Sea Level Pressure 29.88 in    
Wind  
Wind Speed 7 mph (SE)    
Max Wind Speed 23 mph    
Max Gust Speed 29 mph    
Visibility 6 miles    
Events Rain , Thunderstorm    
T = Trace of Precipitation, MM = Missing Value Source: NWS Daily Summary

Daily Weather History Graph

Daily Weather History Graph

Search for Another Location

Airport or City:

Trip Planner

Search our weather history database for the weather conditions in past years. The results will help you decide how hot, cold, wet, or windy it might be!

Date:

Astronomy

May. 27, 2013 Rise Set
Actual Time 5:42 AM CDT 8:32 PM CDT
Civil Twilight 5:09 AM CDT 9:04 PM CDT
Nautical Twilight 4:28 AM CDT 9:46 PM CDT
Astronomical Twilight 3:41 AM CDT 10:33 PM CDT
Moon 11:11 PM CDT (5/27) 8:20 AM CDT (5/27)
Length of Visible Light 15h 55m
Length of Day
14h 50m
Waning Gibbous, 91% of the Moon is Illuminated
May 27
Waning Gibbous
May 31
Last Quarter
Jun 8
New
Jun 16
First Quarter
Jun 23
Full

Hourly Weather History & Observations

Time (CDT) Temp. Dew Point Humidity Pressure Visibility Wind Dir Wind Speed Gust Speed Precip Events Conditions
12:53 AM 60.1 °F 57.9 °F 93% 29.99 in 5.0 mi East 10.4 mph - N/A   Overcast
1:13 AM 60.8 °F 57.2 °F 88% 29.99 in 4.0 mi ENE 10.4 mph - 0.01 in Rain Light Rain
1:39 AM 60.8 °F 57.2 °F 88% 29.97 in 4.0 mi East 10.4 mph - 0.01 in Rain Light Rain
1:53 AM 60.1 °F 57.9 °F 93% 29.96 in 4.0 mi East 8.1 mph - 0.01 in Rain Light Rain
2:12 AM 60.8 °F 57.2 °F 88% 29.93 in 3.0 mi ESE 12.7 mph - 0.00 in   Scattered Clouds
2:53 AM 60.1 °F 57.9 °F 93% 29.93 in 4.0 mi ESE 8.1 mph - 0.00 in   Clear
3:21 AM 60.8 °F 57.2 °F 88% 29.94 in 4.0 mi ENE 5.8 mph - N/A   Mostly Cloudy
3:37 AM 60.8 °F 57.2 °F 88% 29.92 in 4.0 mi East 6.9 mph - N/A   Overcast
3:53 AM 60.1 °F 57.9 °F 93% 29.94 in 4.0 mi South 3.5 mph - N/A   Overcast
4:22 AM 59.0 °F 57.2 °F 94% 29.92 in 4.0 mi East 6.9 mph - N/A   Overcast
4:32 AM 59.0 °F 57.2 °F 94% 29.93 in 4.0 mi ESE 5.8 mph - N/A   Overcast
4:43 AM 60.8 °F 57.2 °F 88% 29.93 in 4.0 mi East 6.9 mph - N/A   Overcast
4:53 AM 60.1 °F 57.0 °F 90% 29.93 in 4.0 mi East 9.2 mph - N/A   Overcast
5:10 AM 59.0 °F 57.2 °F 94% 29.93 in 4.0 mi East 12.7 mph - N/A   Scattered Clouds
5:53 AM 59.0 °F 57.0 °F 93% 29.94 in 4.0 mi SE 9.2 mph - N/A   Clear
6:09 AM 59.0 °F 57.2 °F 94% 29.95 in 2.5 mi SE 8.1 mph - N/A   Clear
6:50 AM 59.0 °F 57.2 °F 94% 29.95 in 3.0 mi Calm Calm - N/A   Clear
6:53 AM 59.0 °F 57.9 °F 96% 29.97 in 3.0 mi Variable 4.6 mph - N/A   Clear
6:57 AM 59.0 °F 57.2 °F 94% 29.99 in 2.5 mi West 15.0 mph 20.7 mph N/A   Partly Cloudy
7:09 AM 60.8 °F 57.2 °F 88% 30.00 in 2.5 mi West 9.2 mph - N/A   Mostly Cloudy
7:17 AM 60.8 °F 59.0 °F 94% 29.98 in 4.0 mi SSW 3.5 mph - N/A   Mostly Cloudy
7:31 AM 60.8 °F 57.2 °F 88% 29.97 in 5.0 mi Calm Calm - N/A   Scattered Clouds
7:53 AM 60.1 °F 57.9 °F 93% 29.95 in 2.5 mi SSE 6.9 mph - N/A   Partly Cloudy
8:00 AM 60.8 °F 57.2 °F 88% 29.94 in 3.0 mi SSE 8.1 mph - 0.00 in Rain Light Rain
8:12 AM 60.8 °F 57.2 °F 88% 29.94 in 2.5 mi South 8.1 mph - 0.02 in Rain Light Rain
8:34 AM 60.8 °F 59.0 °F 94% 29.90 in 3.0 mi South 6.9 mph - 0.07 in Rain Rain
8:44 AM 60.8 °F 59.0 °F 94% 29.88 in 2.5 mi SE 5.8 mph - 0.10 in Rain Light Rain
8:53 AM 60.1 °F 59.0 °F 96% 29.88 in 4.0 mi SSE 6.9 mph - 0.10 in Rain Light Rain
9:53 AM 60.1 °F 59.0 °F 96% 29.89 in 2.5 mi SSW 9.2 mph - 0.01 in Rain Light Rain
10:15 AM 60.8 °F 59.0 °F 94% 29.91 in 3.0 mi SSW 9.2 mph - 0.03 in Rain Light Rain
10:33 AM 60.8 °F 59.0 °F 94% 29.90 in 3.0 mi SSW 5.8 mph - 0.08 in Rain , Thunderstorm Rain
10:53 AM 61.0 °F 59.0 °F 93% 29.90 in 3.0 mi SSW 10.4 mph - 0.14 in Rain , Thunderstorm Rain
11:11 AM 60.8 °F 59.0 °F 94% 29.90 in 3.0 mi South 12.7 mph - 0.05 in Rain , Thunderstorm Rain
11:32 AM 62.6 °F 59.0 °F 88% 29.82 in 4.0 mi SE 18.4 mph - 0.09 in Rain Light Rain
11:53 AM 62.1 °F 60.1 °F 93% 29.79 in 10.0 mi SSE 13.8 mph - 0.11 in Rain Light Rain
12:53 PM 64.0 °F 61.0 °F 90% 29.70 in 10.0 mi East 21.9 mph 26.5 mph 0.00 in   Clear
1:53 PM 66.0 °F 62.1 °F 87% 29.76 in 10.0 mi SE 10.4 mph - N/A   Clear
2:53 PM 69.1 °F 63.0 °F 81% 29.78 in 10.0 mi South 4.6 mph - N/A   Scattered Clouds
3:08 PM 68.0 °F 62.6 °F 83% 29.78 in 10.0 mi Calm Calm - N/A   Mostly Cloudy
3:53 PM 69.1 °F 61.0 °F 75% 29.75 in 10.0 mi Calm Calm - N/A   Mostly Cloudy
4:18 PM 69.8 °F 60.8 °F 73% 29.75 in 10.0 mi Calm Calm - N/A   Mostly Cloudy
4:53 PM 70.0 °F 62.1 °F 76% 29.75 in 10.0 mi Calm Calm - N/A   Scattered Clouds
5:53 PM 70.0 °F 62.1 °F 76% 29.76 in 10.0 mi Calm Calm - N/A   Mostly Cloudy
6:53 PM 70.0 °F 63.0 °F 78% 29.76 in 10.0 mi South 4.6 mph - N/A   Overcast
7:53 PM 68.0 °F 63.0 °F 84% 29.77 in 10.0 mi SSE 3.5 mph - N/A   Overcast
8:53 PM 66.9 °F 63.0 °F 87% 29.76 in 10.0 mi SSE 4.6 mph - N/A   Overcast
9:53 PM 66.0 °F 63.0 °F 90% 29.75 in 10.0 mi ESE 6.9 mph - N/A   Mostly Cloudy
10:53 PM 66.0 °F 62.1 °F 87% 29.75 in 10.0 mi SE 6.9 mph - N/A   Partly Cloudy
11:53 PM 66.0 °F 63.0 °F 90% 29.73 in 10.0 mi ESE 6.9 mph - N/A   Mostly Cloudy